Flag for Germany Weather past 2 weeks in Königswinter, North Rhine-Westphalia, Germany

Now
78 °F

Sunny.


Feels Like: 80 °F
Forecast: 69 / 90 °F
Wind: 2 mph from Northwest

Location: Bonn-Hangelar

Current Time: Jul 2, 2015 at 8:23:14 AM

Latest Report: Jul 2, 2015 at 8:00 AM


Visibility: 22 mi

Pressure: 30.03 "Hg

Humidity: 60%

Dew point: 63 °F

Location of KönigswinterLocation

Historic Weather in Königswinter — Graph

°F

Königswinter temperature yesterday

Maximum temperature yesterday: 91 °F (at 4:00 PM)
Minimum temperature yesterday: 60 °F (at 6:00 AM)
Average temperature yesterday: 76 °F

Past Weeks' High & Low Weather Summary

 TemperatureHumidityPressure
High91 °F (Jul 1, 4:00 PM)100% (Jun 18, 4:00 AM)30.31 "Hg (Jun 18, 4:00 AM)
Low47 °F (Jun 23, 1:00 AM)32% (Jun 30, 7:00 PM)29.72 "Hg (Jun 22, 8:00 PM)
Average62 °F74%30.08 "Hg
* Reported Jun 17 7:00 AM — Jul 2 7:00 AM, Königswinter, Weather by CustomWeather, © 2015

Note: Actual official high and low records may vary slightly from our data, if they occured in-between our weather recording intervals... More about our weather records

Advertising

Königswinter weather history for previous 24 hours

 ConditionsComfort  
Time TempWeatherWind HumidityBarometerVisibility
7:00 AM
Thu, Jul 2
77 °FSunny.6 mph58%30.01 "Hg14 mi
6:00 AM76 °FSunny.6 mph56%30.00 "Hg17 mi
5:00 AM77 °FClear.5 mph52%30.00 "Hg25 mi
4:00 AM77 °FClear.5 mph50%30.00 "Hg25 mi
3:00 AM76 °FClear.5 mph52%30.01 "Hg22 mi
2:00 AM74 °FClear.5 mph53%30.01 "Hg25 mi
1:00 AM76 °FClear.5 mph50%30.01 "Hg25 mi
12:00 AM76 °FClear.5 mph52%30.01 "Hg22 mi
11:00 PM
Wed, Jul 1
79 °FClear.6 mph51%30.01 "Hg22 mi
10:00 PM80 °FClear.5 mph54%29.99 "Hg19 mi
9:00 PM82 °FSunny.3 mph55%29.97 "Hg25 mi
8:00 PM86 °FPassing clouds.3 mph50%29.96 "Hg28 mi
7:00 PM88 °FPassing clouds.3 mph49%29.96 "Hg31 mi
6:00 PM89 °FSunny.5 mph40%29.97 "Hg22 mi
5:00 PM90 °FScattered clouds.5 mph36%29.97 "Hg25 mi
4:00 PM91 °FScattered clouds.3 mph34%29.97 "Hg25 mi
3:00 PM89 °FOvercast.5 mph37%29.98 "Hg25 mi
2:00 PM87 °FOvercast.5 mph46%29.99 "Hg14 mi
1:00 PM84 °FPartly sunny.7 mph49%30.01 "Hg14 mi
12:00 PM83 °FOvercast.5 mph51%30.02 "Hg19 mi
11:00 AM82 °FOvercast.3 mph50%30.03 "Hg25 mi
10:00 AM79 °FSunny.3 mph56%30.04 "Hg22 mi
9:00 AM73 °FSunny.5 mph61%30.05 "Hg12 mi
8:00 AM67 °FPassing clouds.6 mph68%30.06 "Hg11 mi
Weather by CustomWeather, © 2015

See weather overviewHow to use our weather pages